El Paso, TX

11:25 AM MDT on May 28, 2017 (GMT -0600)
El Paso International

Weather History for KELP - May, 2014

Change the Weather History Date:

Wednesday, May 7, 2014

  Actual Average Record
Temperature  
Mean Temperature 75 °F 71 °F  
Max Temperature 85 °F 85 °F 99 °F (1886)
Min Temperature 65 °F 57 °F 38 °F (1917)
Degree Days  
Heating Degree Days 0 0  
Month to date heating degree days 11 6  
Since 1 July heating degree days 2037 2471  
Cooling Degree Days 10 7  
Month to date cooling degree days 50 42  
Year to date cooling degree days 176 134  
Growing Degree Days 24 (Base 50)    
Moisture  
Dew Point 22 °F    
Average Humidity 17    
Maximum Humidity 26    
Minimum Humidity 7    
Precipitation  
Precipitation 0.00 in 0.01 in 0.08 in (1957)
Month to date precipitation 0.00 0.08  
Year to date precipitation 0.63 1.43  
Snow  
Snow 0.00 in - - ()
Month to date snowfall 0.0  
Since 1 July snowfall T  
Snow Depth 0.00 in    
Sea Level Pressure  
Sea Level Pressure 29.62 in    
Wind  
Wind Speed 18 mph (WSW)    
Max Wind Speed 40 mph    
Max Gust Speed 51 mph    
Visibility 8 miles    
Events      
T = Trace of Precipitation, MM = Missing Value Source: NWS Daily Summary

Daily Weather History Graph

Daily Weather History Graph

Search for Another Location

Airport or City:

Trip Planner

Search our weather history database for the weather conditions in past years. The results will help you decide how hot, cold, wet, or windy it might be!

Date:

Astronomy

May. 07, 2014 Rise Set
Actual Time 6:14 AM MDT 7:50 PM MDT
Civil Twilight 5:48 AM MDT 8:16 PM MDT
Nautical Twilight 5:16 AM MDT 8:47 PM MDT
Astronomical Twilight 4:43 AM MDT 9:21 PM MDT
Moon 1:22 PM MDT (5/7) 1:49 AM MDT (5/7)
Length of Visible Light 14h 28m
Length of Day
13h 35m
First Quarter, 56% of the Moon is Illuminated
May 7
First Quarter
May 14
Full
May 21
Last Quarter
May 28
New
Jun 5
First Quarter

Hourly Weather History & Observations

Time (MDT) Temp. Dew Point Humidity Pressure Visibility Wind Dir Wind Speed Gust Speed Precip Events Conditions
12:51 AM 72.0 °F 30.0 °F 21% 29.57 in 10.0 mi SW 17.3 mph - N/A   Partly Cloudy
1:51 AM 70.0 °F 30.0 °F 23% 29.57 in 10.0 mi SW 10.4 mph - N/A   Partly Cloudy
2:51 AM 69.1 °F 30.9 °F 24% 29.57 in 10.0 mi SW 12.7 mph - N/A   Partly Cloudy
3:51 AM 69.1 °F 30.9 °F 24% 29.57 in 10.0 mi WSW 19.6 mph - N/A   Partly Cloudy
4:51 AM 68.0 °F 32.0 °F 26% 29.59 in 10.0 mi WSW 13.8 mph - N/A   Partly Cloudy
5:51 AM 66.9 °F 30.9 °F 26% 29.60 in 10.0 mi WSW 13.8 mph - N/A   Partly Cloudy
6:51 AM 66.9 °F 30.9 °F 26% 29.63 in 10.0 mi West 10.4 mph - N/A   Partly Cloudy
7:51 AM 69.1 °F 30.9 °F 24% 29.63 in 10.0 mi WSW 11.5 mph - N/A   Partly Cloudy
8:51 AM 71.1 °F 30.9 °F 23% 29.64 in 10.0 mi SW 9.2 mph - N/A   Partly Cloudy
9:51 AM 75.0 °F 30.9 °F 20% 29.62 in 10.0 mi SSW 11.5 mph 23.0 mph N/A   Partly Cloudy
10:51 AM 77.0 °F 30.0 °F 18% 29.62 in 10.0 mi SSW 21.9 mph 32.2 mph N/A   Partly Cloudy
11:51 AM 78.1 °F 30.9 °F 18% 29.62 in 10.0 mi SSW 16.1 mph 32.2 mph N/A   Scattered Clouds
12:51 PM 80.1 °F 28.0 °F 15% 29.59 in 10.0 mi SSW 18.4 mph 34.5 mph N/A   Scattered Clouds
1:51 PM 82.9 °F 23.0 °F 11% 29.55 in 10.0 mi SW 31.1 mph 39.1 mph N/A   Scattered Clouds
2:51 PM 82.4 °F 21.2 °F 10% 29.75 in 7.0 mi WSW 24.2 mph 39.1 mph N/A   Mostly Cloudy
3:11 PM 82.9 °F 21.9 °F 11% 29.75 in 3.0 mi WSW 32.2 mph 41.4 mph N/A   Widespread Dust
3:37 PM 82.0 °F 21.0 °F 10% 29.74 in 2.5 mi WSW 33.4 mph 39.1 mph N/A   Widespread Dust
3:51 PM 82.9 °F 21.0 °F 10% 29.52 in 2.0 mi West 31.1 mph 43.7 mph N/A   Widespread Dust
4:09 PM 81.0 °F 19.0 °F 10% 29.74 in 1.8 mi WSW 38.0 mph 44.9 mph N/A   Widespread Dust
4:35 PM 80.1 °F 15.1 °F 9% 29.73 in 1.0 mi West 32.2 mph 49.5 mph N/A   Widespread Dust
4:51 PM 80.1 °F 12.9 °F 8% 29.53 in 1.5 mi WSW 34.5 mph 47.2 mph N/A   Widespread Dust
5:51 PM 78.1 °F 12.9 °F 8% 29.55 in 5.0 mi West 29.9 mph 40.3 mph N/A   Widespread Dust
6:51 PM 75.9 °F 9.0 °F 8% 29.58 in 5.0 mi West 23.0 mph 38.0 mph N/A   Widespread Dust
7:18 PM 75.0 °F 5.0 °F 7% 29.77 in 7.0 mi West 29.9 mph 40.3 mph N/A   Widespread Dust
7:51 PM 73.9 °F 5.0 °F 7% 29.60 in 10.0 mi West 17.3 mph 34.5 mph N/A   Partly Cloudy
8:51 PM 72.0 °F 5.0 °F 7% 29.62 in 10.0 mi West 23.0 mph 34.5 mph N/A   Clear
9:51 PM 69.1 °F 15.1 °F 13% 29.66 in 10.0 mi NW 17.3 mph 26.5 mph N/A   Clear
10:51 PM 66.9 °F 19.0 °F 16% 29.68 in 10.0 mi NW 15.0 mph - N/A   Clear
11:51 PM 64.9 °F 19.0 °F 17% 29.68 in 10.0 mi NW 10.4 mph - N/A   Partly Cloudy